Year,Month,Day,Hour,Minute,Value (Times are PST for temperature in C)
2006,09,05,00,00,14.80
2006,09,05,00,01,14.80
2006,09,05,00,02,14.80
2006,09,05,00,03,14.80
2006,09,05,00,04,14.80
2006,09,05,00,05,14.80
2006,09,05,00,06,14.80
2006,09,05,00,07,14.80
2006,09,05,00,08,14.80
2006,09,05,00,09,14.70
2006,09,05,00,10,14.70
2006,09,05,00,11,14.70
2006,09,05,00,12,14.70
2006,09,05,01,02,14.30
2006,09,05,01,03,14.30
2006,09,05,01,04,14.30
2006,09,05,01,05,14.30
2006,09,05,01,06,14.20
2006,09,05,01,07,14.20
2006,09,05,01,08,14.20
2006,09,05,01,09,14.20
2006,09,05,01,10,14.20
2006,09,05,01,11,14.20
2006,09,05,01,12,14.20
2006,09,05,01,13,14.20
2006,09,05,01,14,14.20
2006,09,05,01,15,14.20
2006,09,05,01,16,14.10
2006,09,05,01,17,14.10
2006,09,05,01,18,14.10
2006,09,05,01,19,14.00
2006,09,05,01,20,14.00
2006,09,05,01,21,14.00
2006,09,05,01,22,13.90
2006,09,05,01,23,13.90
2006,09,05,01,24,13.90
2006,09,05,01,25,13.90
2006,09,05,01,26,13.90
2006,09,05,01,27,13.80
2006,09,05,01,28,13.80
2006,09,05,01,29,13.80
2006,09,05,01,30,13.70
2006,09,05,01,31,13.70
2006,09,05,01,32,13.70
2006,09,05,01,33,13.70
2006,09,05,01,34,13.70
2006,09,05,01,35,13.70
2006,09,05,01,36,13.70
2006,09,05,01,37,13.70
2006,09,05,01,38,13.70
2006,09,05,01,39,13.70
2006,09,05,01,40,13.70
2006,09,05,01,41,13.70
2006,09,05,01,42,13.80
2006,09,05,01,43,13.80
2006,09,05,01,44,13.90
2006,09,05,01,45,13.90
2006,09,05,01,46,13.90
2006,09,05,01,47,13.90
2006,09,05,01,48,13.90
2006,09,05,01,49,13.90
2006,09,05,01,50,13.90
2006,09,05,01,51,13.90
2006,09,05,01,52,14.00
2006,09,05,01,53,14.00
2006,09,05,01,54,14.00
2006,09,05,01,55,14.00
2006,09,05,01,56,14.00
2006,09,05,01,57,14.00
2006,09,05,01,58,14.10
2006,09,05,01,59,14.10
2006,09,05,02,00,14.10
2006,09,05,02,01,14.20
2006,09,05,02,02,14.20
2006,09,05,02,03,14.20
2006,09,05,02,04,14.20
2006,09,05,02,05,14.20
2006,09,05,02,06,14.20
2006,09,05,02,07,14.20
2006,09,05,02,08,14.20
2006,09,05,02,09,14.20
2006,09,05,02,10,14.20
2006,09,05,02,11,14.20
2006,09,05,02,12,14.20
2006,09,05,02,13,14.20
2006,09,05,02,14,14.20
2006,09,05,02,15,14.20
2006,09,05,02,16,14.20
2006,09,05,02,17,14.20
2006,09,05,02,18,14.20
2006,09,05,02,19,14.20
2006,09,05,02,20,14.20
2006,09,05,02,21,14.20
2006,09,05,02,22,14.20
2006,09,05,02,23,14.20
2006,09,05,02,24,14.10
2006,09,05,02,25,14.10
2006,09,05,02,26,14.10
2006,09,05,02,27,14.10
2006,09,05,02,28,14.00
2006,09,05,02,29,14.00
2006,09,05,02,30,14.00
2006,09,05,02,31,13.90
2006,09,05,02,32,13.90
2006,09,05,02,33,13.90
2006,09,05,02,34,13.90
2006,09,05,02,35,13.80
2006,09,05,02,36,13.80
2006,09,05,02,37,13.70
2006,09,05,02,38,13.70
2006,09,05,02,39,13.70
2006,09,05,02,40,13.70
2006,09,05,02,41,13.70
2006,09,05,02,42,13.70
2006,09,05,02,43,13.70
2006,09,05,02,44,13.70
2006,09,05,02,45,13.60
2006,09,05,02,46,13.60
2006,09,05,02,47,13.60
2006,09,05,02,48,13.60
2006,09,05,02,49,13.60
2006,09,05,02,50,13.60
2006,09,05,02,51,13.50
2006,09,05,02,52,13.50
2006,09,05,02,53,13.50
2006,09,05,02,54,13.50
2006,09,05,02,55,13.50
2006,09,05,02,56,13.50
2006,09,05,02,57,13.40
2006,09,05,02,58,13.40
2006,09,05,02,59,13.40
2006,09,05,03,00,13.40
2006,09,05,03,01,13.40
2006,09,05,03,02,13.30
2006,09,05,03,03,13.30
2006,09,05,03,04,13.30
2006,09,05,03,05,13.30
2006,09,05,03,06,13.30
2006,09,05,03,07,13.30
2006,09,05,03,08,13.30
2006,09,05,03,09,13.30
2006,09,05,03,10,13.30
2006,09,05,03,11,13.30
2006,09,05,03,12,13.30
2006,09,05,03,13,13.30
2006,09,05,03,14,13.30
2006,09,05,03,15,13.30
2006,09,05,03,16,13.30
2006,09,05,03,17,13.30
2006,09,05,03,18,13.30
2006,09,05,03,19,13.20
2006,09,05,03,20,13.20
2006,09,05,03,21,13.20
2006,09,05,03,22,13.20
2006,09,05,03,23,13.20
2006,09,05,03,24,13.20
2006,09,05,03,25,13.20
2006,09,05,03,26,13.20
2006,09,05,03,27,13.20
2006,09,05,03,28,13.20
2006,09,05,03,29,13.20
2006,09,05,03,30,13.10
2006,09,05,03,31,13.10
2006,09,05,03,32,13.10
2006,09,05,03,33,13.10
2006,09,05,03,34,13.10
2006,09,05,03,35,13.10
2006,09,05,03,36,13.10
2006,09,05,03,37,13.20
2006,09,05,03,38,13.20
2006,09,05,03,39,13.20
2006,09,05,03,40,13.30
2006,09,05,03,41,13.30
2006,09,05,03,42,13.30
2006,09,05,03,43,13.30
2006,09,05,03,44,13.30
2006,09,05,03,45,13.30
2006,09,05,03,46,13.30
2006,09,05,03,47,13.30
2006,09,05,03,48,13.30
2006,09,05,03,49,13.30
2006,09,05,03,50,13.30
2006,09,05,03,51,13.30
2006,09,05,03,52,13.30
2006,09,05,03,53,13.30
2006,09,05,03,54,13.30
2006,09,05,03,55,13.30
2006,09,05,03,56,13.30
2006,09,05,03,57,13.30
2006,09,05,03,58,13.30
2006,09,05,03,59,13.30
2006,09,05,04,00,13.20
2006,09,05,04,01,13.20
2006,09,05,04,02,13.20
2006,09,05,04,03,13.20
2006,09,05,04,04,13.20
2006,09,05,04,05,13.20
2006,09,05,04,06,13.10
2006,09,05,04,07,13.10
2006,09,05,04,08,13.10
2006,09,05,04,09,13.10
2006,09,05,04,10,13.10
2006,09,05,04,11,13.10
2006,09,05,04,12,13.10
2006,09,05,04,13,13.10
2006,09,05,04,14,13.10
2006,09,05,04,15,13.10
2006,09,05,04,16,13.10
2006,09,05,04,17,13.10
2006,09,05,04,18,13.10
2006,09,05,04,19,13.10
2006,09,05,04,20,13.10
2006,09,05,04,21,13.10
2006,09,05,04,22,13.00
2006,09,05,04,23,13.00
2006,09,05,04,24,13.00
2006,09,05,04,25,13.00
2006,09,05,04,26,13.00
2006,09,05,04,27,13.00
2006,09,05,04,28,13.00
2006,09,05,04,29,13.00
2006,09,05,04,30,13.00
2006,09,05,04,31,13.00
2006,09,05,04,32,12.90
2006,09,05,04,33,12.90
2006,09,05,04,34,12.90
2006,09,05,04,35,12.90
2006,09,05,04,36,12.90
2006,09,05,04,37,12.90
2006,09,05,04,38,12.80
2006,09,05,04,39,12.80
2006,09,05,04,40,12.80
2006,09,05,04,41,12.80
2006,09,05,04,42,12.80
2006,09,05,04,43,12.80
2006,09,05,04,44,12.80
2006,09,05,04,45,12.80
2006,09,05,04,46,12.80
2006,09,05,04,47,12.80
2006,09,05,04,48,12.80
2006,09,05,04,49,12.80
2006,09,05,04,50,12.80
2006,09,05,04,51,12.70
2006,09,05,04,52,12.70
2006,09,05,04,53,12.70
2006,09,05,04,54,12.70
2006,09,05,04,55,12.70
2006,09,05,04,56,12.70
2006,09,05,04,57,12.70
2006,09,05,04,58,12.70
2006,09,05,04,59,12.60
2006,09,05,05,00,12.60
2006,09,05,05,01,12.60
2006,09,05,05,02,12.60
2006,09,05,05,03,12.60
2006,09,05,05,04,12.60
2006,09,05,05,05,12.60
2006,09,05,05,06,12.50
2006,09,05,05,07,12.50
2006,09,05,05,08,12.50
2006,09,05,05,09,12.50
2006,09,05,05,10,12.50
2006,09,05,05,11,12.50
2006,09,05,05,12,12.50
2006,09,05,05,13,12.50
2006,09,05,05,14,12.50
2006,09,05,05,15,12.50
2006,09,05,05,16,12.50
2006,09,05,05,17,12.50
2006,09,05,05,18,12.40
2006,09,05,05,19,12.40
2006,09,05,05,20,12.40
2006,09,05,05,21,12.40
2006,09,05,05,22,12.40
2006,09,05,05,23,12.40
2006,09,05,05,24,12.40
2006,09,05,05,25,12.40
2006,09,05,05,26,12.40
2006,09,05,05,27,12.40
2006,09,05,05,28,12.30
2006,09,05,05,29,12.30
2006,09,05,05,30,12.30
2006,09,05,05,31,12.30
2006,09,05,05,32,12.30
2006,09,05,05,33,12.30
2006,09,05,05,34,12.30
2006,09,05,05,35,12.30
2006,09,05,05,36,12.30
2006,09,05,05,37,12.30
2006,09,05,05,38,12.30
2006,09,05,05,39,12.30
2006,09,05,05,40,12.30
2006,09,05,05,41,12.30
2006,09,05,05,42,12.30
2006,09,05,05,43,12.30
2006,09,05,05,44,12.30
2006,09,05,05,45,12.30
2006,09,05,05,46,12.30
2006,09,05,05,47,12.30
2006,09,05,05,48,12.30
2006,09,05,05,49,12.30
2006,09,05,05,50,12.30
2006,09,05,05,51,12.30
2006,09,05,05,52,12.30
2006,09,05,05,53,12.30
2006,09,05,05,54,12.30
2006,09,05,05,55,12.30
2006,09,05,05,56,12.20
2006,09,05,05,57,12.20
2006,09,05,05,58,12.20
2006,09,05,05,59,12.20
2006,09,05,06,00,12.20
2006,09,05,06,01,12.20
2006,09,05,06,02,12.20
2006,09,05,06,03,12.20
2006,09,05,06,04,12.10
2006,09,05,06,05,12.10
2006,09,05,06,06,12.10
2006,09,05,06,07,12.10
2006,09,05,06,08,12.10
2006,09,05,06,09,12.10
2006,09,05,06,10,12.00
2006,09,05,06,11,12.00
2006,09,05,06,12,12.00
2006,09,05,06,13,12.00
2006,09,05,06,14,12.00
2006,09,05,06,15,12.00
2006,09,05,06,16,12.00
2006,09,05,06,17,11.90
2006,09,05,06,18,11.90
2006,09,05,06,19,11.90
2006,09,05,06,20,11.90
2006,09,05,06,21,11.90
2006,09,05,06,22,11.90
2006,09,05,06,23,11.90
2006,09,05,06,24,11.90
2006,09,05,06,25,11.90
2006,09,05,06,26,11.90
2006,09,05,06,27,11.80
2006,09,05,06,28,11.80
2006,09,05,06,29,11.80
2006,09,05,06,30,11.80
2006,09,05,06,31,11.80
2006,09,05,06,32,11.80
2006,09,05,06,33,11.80
2006,09,05,06,34,11.80
2006,09,05,06,35,11.80
2006,09,05,06,36,11.80
2006,09,05,06,37,11.80
2006,09,05,06,38,11.80
2006,09,05,06,39,11.80
2006,09,05,06,40,11.80
2006,09,05,06,41,11.80
2006,09,05,06,42,11.80
2006,09,05,06,43,11.80
2006,09,05,06,44,11.80
2006,09,05,06,45,11.70
2006,09,05,06,46,11.70
2006,09,05,06,47,11.70
2006,09,05,06,48,11.70
2006,09,05,06,49,11.70
2006,09,05,06,50,11.70
2006,09,05,06,51,11.70
2006,09,05,06,52,11.70
2006,09,05,06,53,11.70
2006,09,05,06,54,11.70
2006,09,05,06,55,11.70
2006,09,05,06,56,11.70
2006,09,05,06,57,11.70
2006,09,05,06,58,11.70
2006,09,05,06,59,11.70
2006,09,05,07,00,11.70
2006,09,05,07,01,11.70
2006,09,05,07,02,11.70
2006,09,05,07,03,11.70
2006,09,05,07,04,11.70
2006,09,05,07,05,11.70
2006,09,05,07,06,11.70
2006,09,05,07,07,11.70
2006,09,05,07,08,11.70
2006,09,05,07,09,11.70
2006,09,05,07,10,11.70
2006,09,05,07,11,11.70
2006,09,05,07,12,11.70
2006,09,05,07,13,11.80
2006,09,05,07,14,11.80
2006,09,05,07,15,11.80
2006,09,05,07,16,11.80
2006,09,05,07,17,11.80
2006,09,05,07,18,11.80
2006,09,05,07,19,11.80
2006,09,05,07,20,11.80
2006,09,05,07,21,11.90
2006,09,05,07,22,11.90
2006,09,05,07,23,11.90
2006,09,05,07,24,11.90
2006,09,05,07,25,11.90
2006,09,05,07,26,12.00
2006,09,05,07,27,12.00
2006,09,05,07,28,12.00
2006,09,05,07,29,12.10
2006,09,05,07,30,12.10
2006,09,05,07,31,12.10
2006,09,05,07,32,12.20
2006,09,05,07,33,12.20
2006,09,05,07,34,12.20
2006,09,05,07,35,12.30
2006,09,05,07,36,12.30
2006,09,05,07,37,12.30
2006,09,05,07,38,12.30
2006,09,05,07,39,12.40
2006,09,05,07,40,12.40
2006,09,05,07,41,12.50
2006,09,05,07,42,12.50
2006,09,05,07,43,12.60
2006,09,05,07,44,12.60
2006,09,05,07,45,12.60
2006,09,05,07,46,12.70
2006,09,05,07,47,12.70
2006,09,05,07,48,12.80
2006,09,05,07,49,12.80
2006,09,05,07,50,12.90
2006,09,05,07,51,13.00
2006,09,05,07,52,13.10
2006,09,05,07,53,13.10
2006,09,05,07,54,13.20
2006,09,05,07,55,13.30
2006,09,05,07,56,13.30
2006,09,05,07,57,13.40
2006,09,05,07,58,13.50
2006,09,05,07,59,13.50
2006,09,05,08,00,13.60
2006,09,05,08,01,13.60
2006,09,05,08,02,13.70
2006,09,05,08,03,13.70
2006,09,05,08,04,13.70
2006,09,05,08,05,13.80
2006,09,05,08,06,13.90
2006,09,05,08,07,14.00
2006,09,05,08,08,14.00
2006,09,05,08,09,14.10
2006,09,05,08,10,14.20
2006,09,05,08,11,14.20
2006,09,05,08,12,14.20
2006,09,05,08,13,14.30
2006,09,05,08,14,14.40
2006,09,05,08,15,14.50
2006,09,05,08,16,14.60
2006,09,05,08,17,14.70
2006,09,05,08,18,14.90
2006,09,05,08,19,15.00
2006,09,05,08,20,15.20
2006,09,05,08,21,15.30
2006,09,05,08,22,15.40
2006,09,05,08,23,15.50
2006,09,05,08,24,15.60
2006,09,05,08,25,15.60
2006,09,05,08,26,15.70
2006,09,05,08,27,15.80
2006,09,05,08,28,16.00
2006,09,05,08,29,16.10
2006,09,05,08,30,16.10
2006,09,05,08,31,16.10
2006,09,05,08,32,16.20
2006,09,05,08,33,16.20
2006,09,05,08,34,16.20
2006,09,05,08,35,16.20
2006,09,05,08,36,16.20
2006,09,05,08,37,16.20
2006,09,05,08,38,16.20
2006,09,05,08,39,16.20
2006,09,05,08,40,16.30
2006,09,05,08,41,16.30
2006,09,05,08,42,16.30
2006,09,05,08,43,16.40
2006,09,05,08,44,16.40
2006,09,05,08,45,16.40
2006,09,05,08,46,16.40
2006,09,05,08,47,16.40
2006,09,05,08,48,16.40
2006,09,05,08,49,16.40
2006,09,05,08,50,16.40
2006,09,05,08,51,16.30
2006,09,05,08,52,16.30
2006,09,05,08,53,16.20
2006,09,05,08,54,16.10
2006,09,05,08,55,16.10
2006,09,05,08,56,16.20
2006,09,05,08,57,16.30
2006,09,05,08,58,16.30
2006,09,05,08,59,16.40
2006,09,05,09,00,16.40
2006,09,05,09,01,16.40
2006,09,05,09,02,16.40
2006,09,05,09,03,16.40
2006,09,05,09,04,16.40
2006,09,05,09,05,16.40
2006,09,05,09,06,16.40
2006,09,05,09,07,16.40
2006,09,05,09,08,16.50
2006,09,05,09,09,16.50
2006,09,05,09,10,16.40
2006,09,05,09,11,16.40
2006,09,05,09,12,16.40
2006,09,05,09,13,16.30
2006,09,05,09,14,16.30
2006,09,05,09,15,16.30
2006,09,05,09,16,16.30
2006,09,05,09,17,16.30
2006,09,05,09,18,16.30
2006,09,05,09,19,16.30
2006,09,05,09,20,16.30
2006,09,05,09,21,16.30
2006,09,05,09,22,16.30
2006,09,05,09,23,16.30
2006,09,05,09,24,16.30
2006,09,05,09,25,16.40
2006,09,05,09,26,16.40
2006,09,05,09,27,16.40
2006,09,05,09,28,16.60
2006,09,05,09,29,16.60
2006,09,05,09,30,16.60
2006,09,05,09,31,16.60
2006,09,05,09,32,16.70
2006,09,05,09,33,16.70
2006,09,05,09,34,16.80
2006,09,05,09,35,16.90
2006,09,05,09,36,17.00
2006,09,05,09,37,17.00
2006,09,05,09,38,17.00
2006,09,05,09,39,17.10
2006,09,05,09,40,17.10
2006,09,05,09,41,17.10
2006,09,05,09,42,17.00
2006,09,05,09,43,17.00
2006,09,05,09,44,17.00
2006,09,05,09,45,17.00
2006,09,05,09,46,17.00
2006,09,05,09,47,17.00
2006,09,05,09,48,17.20
2006,09,05,09,49,17.30
2006,09,05,09,50,17.30
2006,09,05,09,51,17.30
2006,09,05,09,52,17.40
2006,09,05,09,53,17.40
2006,09,05,09,54,17.50
2006,09,05,09,55,17.60
2006,09,05,09,56,17.60
2006,09,05,09,57,17.70
2006,09,05,09,58,17.70
2006,09,05,09,59,17.80
2006,09,05,10,00,17.80
2006,09,05,10,01,17.80
2006,09,05,10,02,17.90
2006,09,05,10,03,17.90
2006,09,05,10,04,18.00
2006,09,05,10,05,18.10
2006,09,05,10,06,18.20
2006,09,05,10,07,18.20
2006,09,05,10,08,18.30
2006,09,05,10,09,18.40
2006,09,05,10,10,18.50
2006,09,05,10,11,18.50
2006,09,05,10,12,18.50
2006,09,05,10,13,18.60
2006,09,05,10,14,18.70
2006,09,05,10,15,18.60
2006,09,05,10,16,18.60
2006,09,05,10,17,18.70
2006,09,05,10,18,18.60
2006,09,05,10,19,18.60
2006,09,05,10,20,18.70
2006,09,05,10,21,18.60
2006,09,05,10,22,18.60
2006,09,05,10,23,18.60
2006,09,05,10,24,18.60
2006,09,05,10,25,18.70
2006,09,05,10,26,18.70
2006,09,05,10,27,18.70
2006,09,05,10,28,18.70
2006,09,05,10,29,18.70
2006,09,05,10,30,18.80
2006,09,05,10,31,18.80
2006,09,05,10,32,18.70
2006,09,05,10,33,18.70
2006,09,05,10,34,18.70
2006,09,05,10,35,18.80
2006,09,05,10,36,18.80
2006,09,05,10,37,18.90
2006,09,05,10,38,18.90
2006,09,05,10,39,19.00
2006,09,05,10,40,19.10
2006,09,05,10,41,19.10
2006,09,05,10,42,19.10
2006,09,05,10,43,19.10
2006,09,05,10,44,19.10
2006,09,05,10,45,19.10
2006,09,05,10,46,19.10
2006,09,05,10,47,19.10
2006,09,05,10,48,19.20
2006,09,05,10,49,19.30
2006,09,05,10,50,19.30
2006,09,05,10,51,19.20
2006,09,05,10,52,19.20
2006,09,05,10,53,19.20
2006,09,05,10,54,19.20
2006,09,05,10,55,19.20
2006,09,05,10,56,19.20
2006,09,05,10,57,19.10
2006,09,05,10,58,19.10
2006,09,05,10,59,19.10
2006,09,05,11,00,19.10
2006,09,05,11,01,19.10
2006,09,05,11,02,19.20
2006,09,05,11,03,19.30
2006,09,05,11,04,19.40
2006,09,05,11,05,19.50
2006,09,05,11,06,19.60
2006,09,05,11,07,19.60
2006,09,05,11,08,19.60
2006,09,05,11,09,19.50
2006,09,05,11,10,19.40
2006,09,05,11,11,19.40
2006,09,05,11,12,19.50
2006,09,05,11,13,19.50
2006,09,05,11,14,19.60
2006,09,05,11,15,19.60
2006,09,05,11,16,19.70
2006,09,05,11,17,19.80
2006,09,05,11,18,19.90
2006,09,05,11,19,19.90
2006,09,05,11,20,20.00
2006,09,05,11,21,20.10
2006,09,05,11,22,20.10
2006,09,05,11,23,20.00
2006,09,05,11,24,19.90
2006,09,05,11,25,19.90
2006,09,05,11,26,19.80
2006,09,05,11,27,19.80
2006,09,05,11,28,19.90
2006,09,05,11,29,19.90
2006,09,05,11,30,20.00
2006,09,05,11,31,19.90
2006,09,05,11,32,19.90
2006,09,05,11,33,19.90
2006,09,05,11,34,19.90
2006,09,05,11,35,19.90
2006,09,05,11,36,19.90
2006,09,05,11,37,19.90
2006,09,05,11,38,19.80
2006,09,05,11,39,19.80
2006,09,05,11,40,19.80
2006,09,05,11,41,19.80
2006,09,05,11,42,19.80
2006,09,05,11,43,19.80
2006,09,05,11,44,19.90
2006,09,05,11,45,19.90
2006,09,05,11,46,19.90
2006,09,05,11,47,19.90
2006,09,05,11,48,19.90
2006,09,05,11,49,19.90
2006,09,05,11,50,19.90
2006,09,05,11,51,19.90
2006,09,05,11,52,20.10
2006,09,05,11,53,20.10
2006,09,05,11,54,20.10
2006,09,05,11,55,20.10
2006,09,05,11,56,20.10
2006,09,05,11,57,19.90
2006,09,05,11,58,20.10
2006,09,05,11,59,20.10
2006,09,05,12,00,20.20
2006,09,05,12,01,20.20
2006,09,05,12,02,20.20
2006,09,05,12,03,20.20
2006,09,05,12,04,20.20
2006,09,05,12,05,20.20
2006,09,05,12,06,20.20
2006,09,05,12,07,20.40
2006,09,05,12,08,20.50
2006,09,05,12,09,20.60
2006,09,05,12,10,20.70
2006,09,05,12,11,20.80
2006,09,05,12,12,20.80
2006,09,05,12,13,20.90
2006,09,05,12,14,21.00
2006,09,05,12,15,21.00
2006,09,05,12,16,21.00
2006,09,05,12,17,21.00
2006,09,05,12,18,21.00
2006,09,05,12,19,21.00
2006,09,05,12,20,21.10
2006,09,05,12,21,21.00
2006,09,05,12,22,20.80
2006,09,05,12,23,20.70
2006,09,05,12,24,20.50
2006,09,05,12,25,20.50
2006,09,05,12,26,20.60
2006,09,05,12,27,20.60
2006,09,05,12,28,20.70
2006,09,05,12,29,20.70
2006,09,05,12,30,20.70
2006,09,05,12,31,20.70
2006,09,05,12,32,20.70
2006,09,05,12,33,20.60
2006,09,05,12,34,20.70
2006,09,05,12,35,20.70
2006,09,05,12,36,20.80
2006,09,05,12,37,20.80
2006,09,05,12,38,20.80
2006,09,05,12,39,20.70
2006,09,05,12,40,20.60
2006,09,05,12,41,20.50
2006,09,05,12,42,20.50
2006,09,05,12,43,20.50
2006,09,05,12,44,20.50
2006,09,05,12,45,20.60
2006,09,05,12,46,20.60
2006,09,05,12,47,20.60
2006,09,05,12,48,20.60
2006,09,05,12,49,20.70
2006,09,05,12,50,20.70
2006,09,05,12,51,20.70
2006,09,05,12,52,20.70
2006,09,05,12,53,20.80
2006,09,05,12,54,20.80
2006,09,05,12,55,20.80
2006,09,05,12,56,20.90
2006,09,05,12,57,20.90
2006,09,05,12,58,20.90
2006,09,05,12,59,20.90
2006,09,05,13,00,20.90
2006,09,05,13,01,20.90
2006,09,05,13,02,20.90
2006,09,05,13,03,20.80
2006,09,05,13,04,20.80
2006,09,05,13,05,20.90
2006,09,05,13,06,20.90
2006,09,05,13,07,20.90
2006,09,05,13,08,21.00
2006,09,05,13,09,21.00
2006,09,05,13,10,20.90
2006,09,05,13,11,20.70
2006,09,05,13,12,20.60
2006,09,05,13,13,20.40
2006,09,05,13,14,20.20
2006,09,05,13,15,20.20
2006,09,05,13,16,20.20
2006,09,05,13,17,20.30
2006,09,05,13,18,20.20
2006,09,05,13,19,20.30
2006,09,05,13,20,20.30
2006,09,05,13,21,20.40
2006,09,05,13,22,20.40
2006,09,05,13,23,20.40
2006,09,05,13,24,20.30
2006,09,05,13,25,20.30
2006,09,05,13,26,20.30
2006,09,05,13,27,20.40
2006,09,05,13,28,20.40
2006,09,05,13,29,20.30
2006,09,05,13,30,20.40
2006,09,05,13,31,20.40
2006,09,05,13,32,20.50
2006,09,05,13,33,20.60
2006,09,05,13,34,20.60
2006,09,05,13,35,20.60
2006,09,05,13,36,20.60
2006,09,05,13,37,20.60
2006,09,05,13,38,20.60
2006,09,05,13,39,20.50
2006,09,05,13,40,20.50
2006,09,05,13,41,20.50
2006,09,05,13,42,20.60
2006,09,05,13,43,20.60
2006,09,05,13,44,20.70
2006,09,05,13,45,20.80
2006,09,05,13,46,20.90
2006,09,05,13,47,20.80
2006,09,05,13,48,20.80
2006,09,05,13,49,20.80
2006,09,05,13,50,20.80
2006,09,05,13,51,20.80
2006,09,05,13,52,20.90
2006,09,05,13,53,21.00
2006,09,05,13,54,21.10
2006,09,05,13,55,21.10
2006,09,05,13,56,21.10
2006,09,05,13,57,21.20
2006,09,05,13,58,21.30
2006,09,05,13,59,21.40
2006,09,05,14,00,21.50
2006,09,05,14,01,21.50
2006,09,05,14,02,21.40
2006,09,05,14,03,21.30
2006,09,05,14,04,21.30
2006,09,05,14,05,21.30
2006,09,05,14,06,21.30
2006,09,05,14,07,21.30
2006,09,05,14,08,21.30
2006,09,05,14,09,21.30
2006,09,05,14,10,21.30
2006,09,05,14,11,21.30
2006,09,05,14,12,21.40
2006,09,05,14,13,21.40
2006,09,05,14,14,21.30
2006,09,05,14,15,21.30
2006,09,05,14,16,21.30
2006,09,05,14,17,21.30
2006,09,05,14,18,21.30
2006,09,05,14,19,21.20
2006,09,05,14,20,21.20
2006,09,05,14,21,21.30
2006,09,05,14,22,21.30
2006,09,05,14,23,21.30
2006,09,05,14,24,21.30
2006,09,05,14,25,21.40
2006,09,05,14,26,21.40
2006,09,05,14,27,21.30
2006,09,05,14,28,21.30
2006,09,05,14,29,21.20
2006,09,05,14,30,21.10
2006,09,05,14,31,21.10
2006,09,05,14,32,21.10
2006,09,05,14,33,21.30
2006,09,05,14,34,21.30
2006,09,05,14,35,21.30
2006,09,05,14,36,21.30
2006,09,05,14,37,21.40
2006,09,05,14,38,21.50
2006,09,05,14,39,21.60
2006,09,05,14,40,21.60
2006,09,05,14,41,21.60
2006,09,05,14,42,21.60
2006,09,05,14,43,21.60
2006,09,05,14,44,21.50
2006,09,05,14,45,21.40
2006,09,05,14,46,21.30
2006,09,05,14,47,21.20
2006,09,05,14,48,21.20
2006,09,05,14,49,21.20
2006,09,05,14,50,21.30
2006,09,05,14,51,21.30
2006,09,05,14,52,21.30
2006,09,05,14,53,21.20
2006,09,05,14,54,21.10
2006,09,05,14,55,21.10
2006,09,05,14,56,21.10
2006,09,05,14,57,21.00
2006,09,05,14,58,21.10
2006,09,05,14,59,21.10
2006,09,05,15,00,21.10
2006,09,05,15,01,21.10
2006,09,05,15,02,21.20
2006,09,05,15,03,21.30
2006,09,05,15,04,21.40
2006,09,05,15,05,21.50
2006,09,05,15,06,21.50
2006,09,05,15,07,21.40
2006,09,05,15,08,21.40
2006,09,05,15,09,21.30
2006,09,05,15,10,21.20
2006,09,05,15,11,21.10
2006,09,05,15,12,21.10
2006,09,05,15,13,21.10
2006,09,05,15,14,21.10
2006,09,05,15,15,21.10
2006,09,05,15,16,21.00
2006,09,05,15,17,21.00
2006,09,05,15,18,20.90
2006,09,05,15,19,21.00
2006,09,05,15,20,21.10
2006,09,05,15,21,21.10
2006,09,05,15,22,21.10
2006,09,05,15,23,21.10
2006,09,05,15,24,21.10
2006,09,05,15,25,21.20
2006,09,05,15,26,21.30
2006,09,05,15,27,21.30
2006,09,05,15,28,21.30
2006,09,05,15,29,21.40
2006,09,05,15,30,21.50
2006,09,05,15,31,21.60
2006,09,05,15,32,21.60
2006,09,05,15,33,21.60
2006,09,05,15,34,21.60
2006,09,05,15,35,21.60
2006,09,05,15,36,21.60
2006,09,05,15,37,21.60
2006,09,05,15,38,21.70
2006,09,05,15,39,21.70
2006,09,05,15,40,21.80
2006,09,05,15,41,21.90
2006,09,05,15,42,21.90
2006,09,05,15,43,22.00
2006,09,05,15,44,22.00
2006,09,05,15,45,22.00
2006,09,05,15,46,22.00
2006,09,05,15,47,22.00
2006,09,05,15,48,22.00
2006,09,05,15,49,21.90
2006,09,05,15,50,21.90
2006,09,05,15,51,21.90
2006,09,05,15,52,21.90
2006,09,05,15,53,21.90
2006,09,05,15,54,22.00
2006,09,05,15,55,22.00
2006,09,05,15,56,22.00
2006,09,05,15,57,22.00
2006,09,05,15,58,22.00
2006,09,05,15,59,22.10
2006,09,05,16,00,22.20
2006,09,05,16,01,22.20
2006,09,05,16,02,22.20
2006,09,05,16,03,22.30
2006,09,05,16,04,22.40
2006,09,05,16,05,22.50
2006,09,05,16,06,22.40
2006,09,05,16,07,22.50
2006,09,05,16,08,22.50
2006,09,05,16,09,22.50
2006,09,05,16,10,22.60
2006,09,05,16,11,22.70
2006,09,05,16,12,22.70
2006,09,05,16,13,22.80
2006,09,05,16,14,22.70
2006,09,05,16,15,22.70
2006,09,05,16,16,22.60
2006,09,05,16,17,22.60
2006,09,05,16,18,22.40
2006,09,05,16,19,22.40
2006,09,05,16,20,22.30
2006,09,05,16,21,22.10
2006,09,05,16,22,21.90
2006,09,05,16,23,21.80
2006,09,05,16,24,21.80
2006,09,05,16,25,21.70
2006,09,05,16,26,21.60
2006,09,05,16,27,21.50
2006,09,05,16,28,21.40
2006,09,05,16,29,21.30
2006,09,05,16,30,21.30
2006,09,05,16,31,21.20
2006,09,05,16,32,21.20
2006,09,05,16,33,21.20
2006,09,05,16,34,21.20
2006,09,05,16,35,21.20
2006,09,05,16,36,21.20
2006,09,05,16,37,21.10
2006,09,05,16,38,21.10
2006,09,05,16,39,21.10
2006,09,05,16,40,21.10
2006,09,05,16,41,21.10
2006,09,05,16,42,21.10
2006,09,05,16,43,21.10
2006,09,05,16,44,21.20
2006,09,05,16,45,21.30
2006,09,05,16,46,21.30
2006,09,05,16,47,21.40
2006,09,05,16,48,21.40
2006,09,05,16,49,21.40
2006,09,05,16,50,21.50
2006,09,05,16,51,21.60
2006,09,05,16,52,21.60
2006,09,05,16,53,21.60
2006,09,05,16,54,21.60
2006,09,05,16,55,21.60
2006,09,05,16,56,21.60
2006,09,05,16,57,21.70
2006,09,05,16,58,21.70
2006,09,05,16,59,21.80
2006,09,05,17,00,21.80
2006,09,05,17,01,21.80
2006,09,05,17,02,21.90
2006,09,05,17,03,21.90
2006,09,05,17,04,22.00
2006,09,05,17,05,22.00
2006,09,05,17,06,22.10
2006,09,05,17,07,22.10
2006,09,05,17,08,22.10
2006,09,05,17,09,22.20
2006,09,05,17,10,22.20
2006,09,05,17,11,22.20
2006,09,05,17,12,22.30
2006,09,05,17,13,22.30
2006,09,05,17,14,22.40
2006,09,05,17,15,22.50
2006,09,05,17,16,22.70
2006,09,05,17,17,22.80
2006,09,05,17,18,22.90
2006,09,05,17,19,23.10
2006,09,05,17,20,23.20
2006,09,05,17,21,23.30
2006,09,05,17,22,23.30
2006,09,05,17,23,23.50
2006,09,05,17,24,23.70
2006,09,05,17,25,23.90
2006,09,05,17,26,24.10
2006,09,05,17,27,24.30
2006,09,05,17,28,24.50
2006,09,05,17,29,24.60
2006,09,05,17,30,24.80
2006,09,05,17,31,24.90
2006,09,05,17,32,24.90
2006,09,05,17,33,25.00
2006,09,05,17,34,25.10
2006,09,05,17,35,25.10
2006,09,05,17,36,25.20
2006,09,05,17,37,25.20
2006,09,05,17,38,25.30
2006,09,05,17,39,25.30
2006,09,05,17,40,25.30
2006,09,05,17,41,25.40
2006,09,05,17,42,25.40
2006,09,05,17,43,25.40
2006,09,05,17,44,25.50
2006,09,05,17,45,25.50
2006,09,05,17,46,25.60
2006,09,05,17,47,25.60
2006,09,05,17,48,25.70
2006,09,05,17,49,25.70
2006,09,05,17,50,25.70
2006,09,05,17,51,25.70
2006,09,05,17,52,25.70
2006,09,05,17,53,25.70
2006,09,05,17,54,25.70
2006,09,05,17,55,25.70
2006,09,05,17,56,25.70
2006,09,05,17,57,25.60
2006,09,05,17,58,25.60
2006,09,05,17,59,25.60
2006,09,05,18,00,25.50
2006,09,05,18,01,25.50
2006,09,05,18,02,25.50
2006,09,05,18,03,25.50
2006,09,05,18,04,25.50
2006,09,05,18,05,25.50
2006,09,05,18,06,25.50
2006,09,05,18,07,25.50
2006,09,05,18,08,25.50